Location: Newark
(35.6799°N, 139.7636°E)
Time: 21:22:44
(UTC+00:00)

Transit 2A - Pass Details

Date: 10 December 2019
Orbit: 601 x 957 km, 66.7° (Epoch: 17 January)

Event Time Altitude Azimuth Distance (km) Brightness Sun altitude
Rises 20:07:14 0° 172° (S) 3,186 9.5 -18.3°
Reaches altitude 10° 20:10:13 10° 156° (SSE) 2,197 8.9 -17.7°
Maximum altitude 20:13:50 20° 109° (ESE) 1,541 8.6 -17.0°
Drops below altitude 10° 20:17:14 10° 62° (ENE) 2,063 8.9 -16.3°
Sets 20:19:55 0° 45° (NE) 2,932 9.4 -15.8°
